Tracking 20715 objects as of 27-May-2020
HD Live streaming from Space Station
objects crossing your sky now

DELTA 1 DEB

Track DELTA 1 DEB now!
10-day predictions


NORAD ID: 19594
Int'l Code: 1978-026HN
Perigee: 762.6 km
Apogee: 938.7 km
Inclination: 98.9 °
Period: 101.8 minutes
Semi major axis: 7221 km
RCS: 0.0101 m2 (small)
Launch date: March 5, 1978
Source: United States (US)
Launch site: AIR FORCE WESTERN TEST RANGE (AFWTR)

Note: This is SATELLITE DEBRIS
aabbcc
Your satellite tracking list
Your tracking list is empty




NASA's NSSDC Master Catalog

Two Line Element Set (TLE):
1 19594U 78026HN  20146.79213600 -.00000303 +00000-0 -12551-3 0  9997
2 19594 098.8907 131.0556 0121960 076.1103 285.3602 14.14653126390471
Source of the keplerian elements: AFSPC